Szkolenia lotnicze

Profesjonalne szkolenia lotnicze do licencji pilota szybowcowego i samolotowego oraz innych uprawnień specjalistycznych.

Szczegółowe informacje: +48 606 765 402.

Loty widokowe

Pełne pozytywnych emocji loty zapoznawcze na samolocie PZL-110 Koliber lub szybowcu KR-03A Puchatek.

Szczegółowe informacje: +48 606 765 402.

Obsługa lotniskowa

Kompleksowa obsługa lotniskowa, hangarowa i techniczna statków powietrznych oraz wsparcie ich załóg.

Szczegółowe informacje: +48 606 765 402.

Rekreacja i edukacja

Atrakcyjne zajęcia edukacyjne dla najmłodszych oraz tematyczne imprezy integracyjne dla nieco starszych.

Szczegółowe informacje: +48 606 765 402.

This Is A Headline Widget

You can customize it and put it where ever you want

EPPO 160030Z 10002KT 0050 R28/0325 FZFG VV001 M02/M02 Q1030 R10/19//95